RH
40 42 41 41 42 40 40 37 40 49 54 58 57 56 45 51 51 47 47 54 55 44 40 46 48 33 36 41 39 36 39 44 46 44 41 39 33 29 26 27 27 24 26
42 41 41 42 44 44 41 42 39 38 37 40 47 48 48 58 55 58 46 42 49 44 39 40 38 32 28 36 41 46 40 36 38 35 32 32 28 29 29 30 28 28 28
52 49 49 44 45 46 43 45 45 42 41 37 36 42 47 52 50 55 55 47 46 50 46 42 38 32 31 32 27 32 36 37 35 34 34 34 31 29 31 32 32 33 28
76 81 63 58 48 47 48 51 47 46 44 42 39 39 39 42 43 44 47 50 46 49 49 44 38 35 33 32 28 25 28 30 34 34 33 31 32 34 38 39 37 33 25
83 80 66 74 56 53 53 52 50 49 44 43 42 41 40 37 39 36 39 41 41 43 46 44 42 37 32 29 27 24 28 29 30 30 30 33 37 39 38 37 34 27 22
74 86 78 86 69 56 58 60 59 50 54 49 44 42 40 38 37 39 37 38 37 33 36 38 34 39 39 36 29 25 23 26 27 28 27 29 29 30 28 28 24 20 16
87 84 84 80 79 73 63 64 64 60 54 50 50 51 50 46 41 38 39 36 34 36 39 38 37 39 31 29 29 28 27 25 22 21 20 19 18 18 20 19 19 18 17
82 81 82 83 82 75 72 71 68 63 58 57 50 49 49 47 48 45 42 40 37 31 31 33 36 33 31 34 36 35 30 26 24 22 21 19 18 18 20 21 21 20 19
68 72 72 74 78 80 78 73 69 69 65 60 58 56 54 51 49 48 49 48 43 37 32 30 31 31 31 30 29 30 29 28 26 24 23 22 23 23 24 25 22 24 20
49 50 52 53 61 68 77 82 78 75 73 72 71 75 71 68 66 56 56 54 47 45 42 37 33 31 29 29 30 29 26 20 22 24 25 23 22 22 22 23 22 21 21
32 35 40 42 40 46 51 61 76 81 79 81 80 80 80 80 79 77 67 67 64 55 46 43 40 37 36 38 37 35 31 31 28 27 26 23 23 22 22 22 22 23 23
29 28 27 32 36 35 34 38 43 58 71 76 77 76 76 74 80 85 82 79 78 75 66 51 46 48 46 44 45 40 39 40 39 36 36 34 31 29 28 29 27 25 25
18 19 23 24 24 29 32 30 35 41 47 62 73 77 76 74 72 75 83 86 85 87 82 71 59 45 44 48 52 45 45 47 47 44 39 34 32 31 30 29 28 27 25
21 20 18 18 19 20 23 27 33 35 41 45 48 54 65 66 70 75 81 84 86 82 79 81 77 69 61 54 47 47 49 46 45 42 39 37 36 34 30 27 27 27 28
23 23 23 22 22 23 23 23 26 27 30 34 38 39 40 46 56 62 70 78 78 77 79 81 82 80 78 67 59 59 59 56 49 42 42 42 42 41 36 34 31 31 32
21 22 22 23 23 23 23 21 20 20 22 26 26 31 36 36 39 46 55 59 63 63 62 62 70 82 82 80 71 73 78 70 60 54 50 50 48 49 48 44 41 39 36
20 18 19 20 20 21 22 23 22 20 20 19 19 23 27 32 36 37 39 47 54 54 51 52 53 60 74 81 78 70 74 83 83 79 70 66 63 53 45 44 43 43 43
20 19 19 20 20 20 21 21 21 22 22 23 24 23 23 26 30 34 36 37 40 46 47 45 48 48 54 62 75 75 81 90 93 88 88 81 80 66 60 54 56 61 60
21 20 20 19 19 20 20 21 21 22 23 23 24 24 23 21 25 29 37 37 37 38 42 47 46 48 45 53 61 73 86 93 93 85 98 85 76 77 72 66 69 73 74
21 21 21 22 23 22 21 22 21 21 21 25 27 28 31 32 27 25 32 40 47 45 40 45 48 49 48 49 53 70 79 83 87 90 94 89 73 75 71 69 73 75 76
26 24 23 23 24 25 25 24 24 23 23 24 24 26 31 36 33 29 26 28 36 45 44 40 39 45 49 48 56 75 89 83 81 83 89 87 80 77 74 76 83 84 85
30 27 23 22 22 22 25 25 27 26 26 26 26 26 28 32 38 37 33 29 27 34 40 50 42 38 48 49 43 59 82 84 85 89 87 89 88 81 81 83 85 86 86
31 30 26 23 22 22 24 26 28 28 29 30 31 32 33 34 38 40 41 38 37 36 41 46 43 39 43 47 44 39 50 61 75 78 87 91 90 88 93 85 85 86 83
29 31 31 28 26 26 27 29 30 32 35 35 36 38 39 40 40 42 45 44 40 37 32 34 40 40 34 36 42 39 38 43 54 67 76 79 83 85 89 89 84 80 82
36 37 37 36 35 33 34 37 40 42 43 45 45 46 45 47 46 46 47 47 44 39 34 29 25 29 35 32 42 45 39 42 46 50 62 68 68 71 78 82 85 83 84
41 40 41 41 44 45 44 47 50 53 53 53 55 56 56 56 55 54 52 51 49 46 41 36 32 28 34 39 36 47 47 45 48 49 56 63 65 64 62 64 68 74 77